TimeCDT,TemperatureF,Dew PointF,Humidity,Sea Level PressureIn,VisibilityMPH,Wind Direction,Wind SpeedMPH,Gust SpeedMPH,PrecipitationIn,Events,Conditions,WindDirDegrees,DateUTC
12:58 AM,68.0,66.0,93,29.99,10.0,North,5.8,-,N/A,,Clear,350,2013-06-15 05:58:00
1:58 AM,66.0,64.9,96,29.98,9.0,Calm,Calm,-,N/A,,Clear,0,2013-06-15 06:58:00
2:58 AM,64.0,63.0,96,29.98,9.0,NNW,4.6,-,N/A,,Clear,330,2013-06-15 07:58:00
3:58 AM,64.0,63.0,96,29.98,10.0,Calm,Calm,-,N/A,,Clear,0,2013-06-15 08:58:00
4:58 AM,63.0,62.1,97,29.99,10.0,NNW,4.6,-,N/A,,Clear,330,2013-06-15 09:58:00
5:58 AM,63.0,62.1,97,30.01,10.0,North,4.6,-,N/A,,Clear,350,2013-06-15 10:58:00
6:58 AM,66.9,64.0,90,30.01,10.0,NNW,4.6,-,N/A,,Clear,340,2013-06-15 11:58:00
7:58 AM,73.0,64.9,76,30.04,10.0,NNE,3.5,-,N/A,,Clear,30,2013-06-15 12:58:00
8:58 AM,78.1,64.9,64,30.04,10.0,ENE,4.6,-,N/A,,Clear,70,2013-06-15 13:58:00
9:58 AM,82.0,64.0,54,30.04,10.0,Calm,Calm,-,N/A,,Clear,0,2013-06-15 14:58:00
10:58 AM,84.9,63.0,48,30.04,10.0,Variable,3.5,-,N/A,,Clear,0,2013-06-15 15:58:00
11:58 AM,86.0,61.0,43,30.04,10.0,Calm,Calm,-,N/A,,Clear,0,2013-06-15 16:58:00
12:58 PM,87.1,62.1,43,30.03,10.0,East,3.5,-,N/A,,Clear,80,2013-06-15 17:58:00
1:58 PM,88.0,62.1,42,30.02,10.0,ESE,4.6,-,N/A,,Clear,120,2013-06-15 18:58:00
2:58 PM,89.1,62.1,40,30.00,10.0,SE,6.9,-,N/A,,Clear,140,2013-06-15 19:58:00
3:58 PM,89.1,63.0,42,29.99,10.0,Variable,5.8,-,N/A,,Clear,0,2013-06-15 20:58:00
4:58 PM,90.0,64.0,42,29.99,10.0,SE,4.6,-,N/A,,Mostly Cloudy,140,2013-06-15 21:58:00
5:58 PM,88.0,64.9,46,29.98,10.0,ESE,4.6,-,N/A,,Scattered Clouds,110,2013-06-15 22:58:00
6:58 PM,86.0,66.0,51,29.97,10.0,SSE,4.6,-,N/A,,Clear,150,2013-06-15 23:58:00
7:58 PM,79.0,73.0,82,29.98,10.0,Calm,Calm,-,N/A,,Clear,0,2013-06-16 00:58:00
8:58 PM,75.9,71.1,85,30.00,10.0,Calm,Calm,-,N/A,,Clear,0,2013-06-16 01:58:00
9:58 PM,73.9,71.1,91,30.02,10.0,Calm,Calm,-,N/A,,Clear,0,2013-06-16 02:58:00
10:58 PM,73.0,70.0,90,30.02,9.0,Calm,Calm,-,N/A,,Clear,0,2013-06-16 03:58:00
11:58 PM,72.0,69.1,91,30.02,9.0,Calm,Calm,-,N/A,,Clear,0,2013-06-16 04:58:00